www.pogodaiklimat.ru

Погода и климат >> Архив погоды >> Оман >> Sohar Majis


ПОГОДА в Sohar Majis

  • Прогноз погоды в Sohar Majis
  • Монитор погоды в Sohar Majis
  • Климат города

АРХИВ ПОГОДЫ в Sohar Majis

Время (UTC), дата Ветер
(напр.,м/с)
 
Видим.   Явления Облачность Т
(С)
Тd
(С)
f
(%)
Тe
(С)
Тes
(С)
Комфортность P
(гПа)
Po
(гПа)
Тmin
(С)
Tmax
(С)
R
(мм)
R24
(мм)
S
(см)
03 9.07 С 5 н/о н/о +35.7 +25.4 55 +50 +50 опасность
перегрева
996.0 995.6
06 9.07 ЮВ 3 8000 м мгла ясно +36.1 +26.6 58 +53 +66 опасность
перегрева
997.0 996.8 +32.4
09 9.07 В 5 н/о н/о +36.6 +25.5 53 +51 +51 опасность
перегрева
995.5 995.1
12 9.07 СВ 3 н/о н/о +36.6 +25.1 52 +50 +50 опасность
перегрева
994.2 993.8
15 9.07 В 1 8000 м мгла ясно +35.4 +23.4 50 +46 +46 опасность
перегрева
994.0 993.8
18 9.07 ЮВ 2 н/о н/о +34.6 +22.5 49 +44 +44 опасность
перегрева
994.9 994.5 +37.2
21 9.07 В 2 н/о н/о +33.5 +27.9 73 +54 +54 опасность
перегрева
993.7 993.3
00 10.07 В 5 н/о н/о +34.3 +27.1 66 +52 +52 опасность
перегрева
993.7 993.3
03 10.07 Ю 1 н/о н/о +33.9 +24.2 57 +46 +46 опасность
перегрева
995.9 995.5
06 10.07 ЮВ 2 н/о н/о +38.2 +24.4 46 +50 +50 опасность
перегрева
996.3 995.8 +32.8
09 10.07 В 7 7000 м мгла ясно +36.8 +29.4 66 +61 +68 опасность
перегрева
994.8 994.6
12 10.07 В 4 н/о н/о +36.3 +29.0 66 +60 +60 опасность
перегрева
994.4 994.0
15 10.07 В 3 н/о н/о +33.7 +31.0 86 +64 +64 опасность
перегрева
994.6 994.2
18 10.07 ЮВ 2 н/о н/о +32.8 +30.5 88 +62 +62 опасность
перегрева
995.5 995.0 +35.3
21 10.07 В 5 н/о н/о +32.5 +31.3 93 +64 +64 опасность
перегрева
994.8 994.4
00 11.07 ЮВ 3 н/о н/о +31.7 +30.0 91 +58 +58 опасность
перегрева
995.0 994.6
03 11.07 ЮВ 1 н/о н/о +32.0 +30.1 90 +59 +59 опасность
перегрева
996.6 996.2
06 11.07 В 4 н/о н/о +35.0 +29.7 74 +61 +61 опасность
перегрева
997.1 996.7 +31.2
09 11.07 В 5 н/о н/о +34.6 +29.1 73 +58 +58 опасность
перегрева
995.7 995.3
12 11.07 В 4 7000 м мгла 4/0
[Ac trans]
+35.2 +28.9 70 +58 +63 опасность
перегрева
994.5 994.3
15 11.07 ЮВ 3 7000 м мгла 4/0
[Ac trans Ci fib]
+33.5 +29.1 78 +58 +58 опасность
перегрева
994.1 993.9
18 11.07 Ю 2 н/о н/о +33.0 +28.3 76 +54 +54 опасность
перегрева
994.4 994.0 +36.1
21 11.07 В 5 н/о н/о +33.1 +30.2 85 +61 +61 опасность
перегрева
993.0 992.6
00 12.07 СВ 3 н/о н/о +32.6 +31.3 93 +64 +64 опасность
перегрева
993.2 992.8
03 12.07 ЮВ 2 н/о н/о +32.5 +30.1 87 +59 +59 опасность
перегрева
995.3 994.8
06 12.07 В 4 н/о н/о +36.0 +30.8 75 +66 +66 опасность
перегрева
994.9 994.5 +31.8
09 12.07 В 6 н/о н/о +36.5 +31.6 76 +69 +69 опасность
перегрева
993.5 993.0
12 12.07 В 4 н/о н/о +35.1 +30.3 76 +63 +63 опасность
перегрева
992.5 992.1
15 12.07 СВ 3 н/о н/о +33.5 +29.9 82 +60 +60 опасность
перегрева
992.6 992.2
18 12.07 ЮВ 3 н/о н/о +32.6 +29.9 86 +59 +59 опасность
перегрева
993.2 992.8 +37.3
21 12.07 ЮВ 1 н/о н/о +32.0 +29.2 85 +56 +56 опасность
перегрева
992.2 991.7
00 13.07 В 2 н/о н/о +31.9 +30.1 90 +59 +59 опасность
перегрева
992.8 992.4
03 13.07 В 2 н/о н/о +32.8 +30.5 88 +62 +62 опасность
перегрева
994.0 993.5
06 13.07 В 4 н/о н/о +34.2 +30.2 80 +62 +62 опасность
перегрева
994.3 993.9 +31.8
09 13.07 В 4 н/о н/о +36.0 +26.5 58 +53 +53 опасность
перегрева
993.7 993.3
12 13.07 В 5 8000 м мгла 4/3 900 м
[Sc diur, vesp Ac trans]
+34.4 +29.0 74 +58 +61 опасность
перегрева
992.4 992.2
15 13.07 В 7 н/о н/о +33.4 +29.9 82 +60 +60 опасность
перегрева
992.4 992.0
18 13.07 В 3 н/о н/о +32.8 +30.1 86 +60 +60 опасность
перегрева
994.2 993.7 +37.9
21 13.07 ЮВ 4 н/о н/о +32.2 +29.7 87 +58 +58 опасность
перегрева
993.3 992.8
00 14.07 ЮВ 2 н/о н/о +31.6 +30.2 92 +58 +58 опасность
перегрева
993.3 992.8
03 14.07 В 3 н/о н/о +32.7 +28.8 80 +56 +56 опасность
перегрева
995.3 994.9
06 14.07 В 4 7000 м мгла ясно +35.2 +28.9 70 +58 +69 опасность
перегрева
995.6 995.4 +31.5
09 14.07 В 6 н/о н/о +34.6 +29.0 73 +58 +58 опасность
перегрева
994.8 994.3
12 14.07 В 4 н/о н/о +35.0 +28.9 71 +58 +58 опасность
перегрева
993.8 993.3
15 14.07 ЮВ 6 8000 м мгла 5/3 900 м
[Sc diur, vesp Ci fib]
+33.3 +28.7 77 +56 +56 опасность
перегрева
992.7 992.5
18 14.07 В 4 н/о н/о +32.6 +29.7 85 +58 +58 опасность
перегрева
995.1 994.6 +36.3
21 14.07 Ю 2 н/о н/о +31.5 +29.1 87 +55 +55 опасность
перегрева
993.6 993.2
00 15.07 В 3 н/о н/о +31.7 +30.0 91 +58 +58 опасность
перегрева
993.2 992.7
06 15.07 В 5 н/о н/о +35.3 +29.1 70 +59 +59 опасность
перегрева
995.5 995.1 +31.3
09 15.07 В 5 н/о н/о +33.8 +29.6 79 +60 +60 опасность
перегрева
994.2 993.8
12 15.07 В 4 8000 м мгла ясно +34.9 +25.1 57 +49 +54 опасность
перегрева
992.5 992.3
15 15.07 ЮВ 3 8000 м мгла ясно +33.7 +27.7 71 +54 +54 опасность
перегрева
992.2 992.0
18 15.07 ЮВ 2 н/о н/о +33.2 +29.1 79 +57 +57 опасность
перегрева
993.1 992.6 +36.3
21 15.07 ЮВ 3 н/о н/о +32.8 +28.2 77 +54 +54 опасность
перегрева
992.3 991.8
00 16.07 Ю 1 н/о н/о +32.0 +26.0 71 +48 +48 опасность
перегрева
991.9 991.5

 

Местоположение метеостанции Sohar Majis (Оман): широта 24.47 долгота 56.63 высота над уровнем моря 4 м.

В архиве по умолчанию представлена погода в Sohar Majis за последнюю неделю. Архивные данные за месяц целиком и за предыдущие месяцы, начиная с января 2011 года, Вы можете получить, выбрав интересующий диапазон дат из раскрывающегося списка и нажав кнопку "Ввод!".


*Определитесь, кто Вы:
робот инопланетянин человек

Внимание! Время в таблицах - всемирное. Для получения местного времени необходимо прибавить поправку, которая в Sohar Majis равна 4 ч.

Смотрите также архив погоды в соседних городах и на ближайших метеорологических станциях:

Погода в Qumayra (Оман) (74 км)
Погода в Fujairah (ОАЭ) (76 км)
Погода в Buraimi (Оман) (90 км)
Погода в Suwaiq (Оман) (97 км)
Погода в Al Ain Int Airport (ОАЭ) (107 км)
Погода в Ibri (Оман) (117 км)
Погода в Diba (Оман) (134 км)
Погода в Rustaq (Оман) (144 км)
Погода в Ras Al Khaimah Int Airport (ОАЭ) (146 км)
Погода в Sharjah (ОАЭ) (147 км)

Пояснения к столбцам:

Ветер - указаны скорость ветра в м/с - средняя за 10 мин, порывы в срок и между сроками (в фигурных скобках) и направление, откуда дует ветер: С - северный, СВ - северо-восточный, В - восточный, ЮВ - юго-восточный, Ю - южный, ЮЗ - юго-западный, З - западный, СЗ - северо-западный.
Видимость - горизонтальная дальность видимости в метрах или километрах. При видимости от 1 до 10 км при отсутствии осадков обычно наблюдается дымка, при ухудшении видимости до 1 км и менее - туман. В сухую погоду видимость может ухудшаться дымом, пылью или мглою.
Явления - указаны атмосферные явления, наблюдавшиеся в срок или в последний час перед сроком; фигурными скобками обозначены явления, наблюдавшиеся между сроками (за 1-3 часа до срока); квадратными скобками обозначены град или гололедные отложения с указанием их диаметра в мм.
Облачность - указаны через наклонную черту общая и нижняя облачность в баллах и высота нижней границы облаков в метрах; квадратными скобками обозначены формы облаков: Ci - перистые, Cs - перисто-слоистые, Cc - перисто-кучевые, Ac - высококучевые, As - высокослоистые, Sc - слоисто-кучевые, Ns - слоисто-дождевые, Cu - кучевые, Cb - кучево-дождевые. Подробнее классификацию облаков см. в Атласе облаков (PDF).
T - Температура воздуха - температура, измеренная на высоте 2 м над землей.
Td - Температура точки росы - температура, при понижении до которой содержащийся в воздухе водяной пар достигнет насыщения.
f - Относительная влажность воздуха - влажноcть воздуха, измеренная на высоте 2 м над землей.
Te - Эффективная температура - температура, которую ощущает одетый по сезону человек в тени. Характеристика душности погоды. При расчете учитывается влияние влажности воздуха и скорости ветра на теплоощущения человека.
Tes - Эффективная температура на солнце - температура, которую ощущает человек, с поправкой на солнечный нагрев. Характеристика знойности погоды. Зависит от высоты солнца над горизонтом, облачности и скорости ветра. Ночью, в пасмурную погоду, а также при ветре 12 м/с и более поправка равна нулю.
P - Атмосферное давление - приведенное к уровню моря атмосферное давление.
Po - Атмосферное давление - измеренное на уровне метеостанции атмосферное давление.
Tmin - Минимальная температура - минимум температуры воздуха на высоте 2 м над землей.
Tmax - Максимальная температура - максимум температуры воздуха на высоте 2 м над землей.
R - Количество осадков - Количество выпавших осадков за период времени, мм. При наведении курсора мыши на число - период времени, за который выпало указанное количество осадков.
R24 - Количество осадков - Количество выпавших осадков за 24 часа, мм.
S - Снежный покров - Высота снежного покрова, см. При наведении курсора мыши на число - состояние снежного покрова и степень покрытия местности в баллах.